This is the latest recevied weather packets stored in our database for station/object N8ESC. If no packets are shown the sender has not sent any weather packets the latest 10 day(s).
| Time | Temp. | Humidity | Pressure | Rain* | Wind** | Luminosity | Snow |
|---|---|---|---|---|---|---|---|
| 1778015258 | 10.56° C | 37% | 1005.2 hPa | 0 mm | - | 198 W/m² | - |
| 1778014955 | 10.56° C | 37% | 1005.3 hPa | 0 mm | - | 346 W/m² | - |
| 1778014652 | 10.56° C | 36% | 1005.2 hPa | 0 mm | - | 311 W/m² | - |
| 1778014350 | 10.56° C | 37% | 1005.1 hPa | 0 mm | - | 271 W/m² | - |
| 1778014046 | 10.56° C | 36% | 1005.1 hPa | 0 mm | - | 245 W/m² | - |
| 1778013744 | 10.56° C | 35% | 1005.1 hPa | 0 mm | - | 212 W/m² | - |
| 1778013441 | 11.11° C | 35% | 1005.1 hPa | 0 mm | - | 238 W/m² | - |
| 1778013138 | 11.67° C | 35% | 1005 hPa | 0 mm | - | 296 W/m² | - |
| 1778012834 | 11.11° C | 35% | 1005 hPa | 0 mm | - | 336 W/m² | - |
| 1778012530 | 11.11° C | 34% | 1005 hPa | 0 mm | - | 263 W/m² | - |
| 1778012226 | 11.11° C | 36% | 1004.9 hPa | 0 mm | - | 340 W/m² | - |
| 1778011925 | 10.56° C | 35% | 1004.9 hPa | 0 mm | - | 325 W/m² | - |
| 1778011622 | 11.11° C | 35% | 1004.8 hPa | 0 mm | - | 228 W/m² | - |
| 1778011319 | 11.11° C | 36% | 1004.7 hPa | 0 mm | - | 241 W/m² | - |
| 1778011015 | 10.56° C | 35% | 1004.8 hPa | 0 mm | - | 245 W/m² | - |
| 1778010712 | 11.11° C | 36% | 1004.8 hPa | 0 mm | - | 278 W/m² | - |
| 1778010409 | 11.11° C | 35% | 1004.5 hPa | 0 mm | - | 268 W/m² | - |
| 1778010105 | 11.11° C | 35% | 1004.5 hPa | 0 mm | - | 301 W/m² | - |
| 1778009802 | 11.11° C | 35% | 1004.6 hPa | 0 mm | - | 281 W/m² | - |
| 1778009499 | 11.11° C | 35% | 1004.5 hPa | 0 mm | - | 310 W/m² | - |
| 1778009198 | 11.11° C | 35% | 1004.4 hPa | 0 mm | - | 622 W/m² | - |
| 1778008895 | 11.11° C | 36% | 1004.5 hPa | 0 mm | - | 308 W/m² | - |
| 1778008593 | 11.11° C | 35% | 1004.5 hPa | 0 mm | - | 299 W/m² | - |
| 1778008291 | 10.56° C | 36% | 1004.5 hPa | 0 mm | - | 344 W/m² | - |
| 1778007987 | 11.11° C | 35% | 1004.3 hPa | 0 mm | - | 290 W/m² | - |
* Rain latest hour (hover to see other rain measurements)
** Current wind speed in m/s (hover to see current wind gust speed)